This is the latest recevied weather packets stored in our database for station/object SQ6ELQ-11. If no packets are shown the sender has not sent any weather packets the latest 10 day(s).
| Time | Temp. | Humidity | Pressure | Rain* | Wind** | Luminosity | Snow |
|---|---|---|---|---|---|---|---|
| 1778404576 | 13.89° C | 48% | 1015 hPa | 0 mm | - | - | - |
| 1778403576 | 12.78° C | 49% | 1015.2 hPa | 0 mm | - | - | - |
| 1778402526 | 12.22° C | 49% | 1015.5 hPa | 0 mm | - | - | - |
| 1778401494 | 12.22° C | 50% | 1015.7 hPa | 0 mm | - | - | - |
| 1778400355 | 11.67° C | 52% | 1015.7 hPa | 0 mm | - | - | - |
| 1778399351 | 11.11° C | 54% | 1016 hPa | 0 mm | - | - | - |
| 1778398216 | 10.56° C | 58% | 1016.1 hPa | 0 mm | - | - | - |
| 1778397083 | 10° C | 63% | 1016.3 hPa | 0 mm | - | - | - |
| 1778396021 | 9.44° C | 66% | 1016.5 hPa | 0 mm | - | - | - |
| 1778394950 | 8.89° C | 71% | 1016.6 hPa | 0 mm | - | - | - |
| 1778393816 | 7.78° C | 75% | 1016.4 hPa | 0 mm | - | - | - |
| 1778392727 | 6.67° C | 75% | 1016.6 hPa | 0 mm | - | - | - |
| 1778391756 | 5.56° C | 75% | 1016.5 hPa | 0 mm | - | - | - |
| 1778390675 | 4.44° C | 74% | 1016.5 hPa | 0 mm | - | - | - |
| 1778389593 | 2.78° C | 73% | 1016.9 hPa | 0 mm | - | - | - |
| 1778388481 | 1.67° C | 72% | 1016.8 hPa | 0 mm | - | - | - |
| 1778387384 | 1.11° C | 74% | 1016.9 hPa | 0 mm | - | - | - |
| 1778386373 | 0.56° C | 73% | 1016.9 hPa | 0 mm | - | - | - |
| 1778385230 | 0° C | 74% | 1016.8 hPa | 0 mm | - | - | - |
| 1778384081 | 0° C | 75% | 1017 hPa | 0 mm | - | - | - |
| 1778382926 | 0° C | 74% | 1017.1 hPa | 0 mm | - | - | - |
| 1778381874 | 0° C | 75% | 1017.1 hPa | 0 mm | - | - | - |
| 1778380826 | 0° C | 74% | 1017.4 hPa | 0 mm | - | - | - |
| 1778379667 | 0° C | 74% | 1017.6 hPa | 0 mm | - | - | - |
| 1778378576 | 0° C | 73% | 1017.8 hPa | 0 mm | - | - | - |
* Rain latest hour (hover to see other rain measurements)
** Current wind speed in m/s (hover to see current wind gust speed)